Tracking 26935 objects as of 5-Feb-2023
HD Live streaming from Space Station
objects crossing your sky now

CZ-4 R/B

Track CZ-4 R/B now!
10-day predictions
CZ-4 R/B is classified as:


NORAD ID: 29507
Int'l Code: 2006-046C
Perigee: 533.9 km
Apogee: 596.7 km
Inclination: 97.7 °
Period: 95.8 minutes
Semi major axis: 6936 km
RCS: 4.43 m2 (large)
Launch date: October 23, 2006
Source: People's Republic of China (PRC)
Launch site: Taiyaun Space Center, China (TSC)

Note: This is a ROCKET BODY
Your satellite tracking list
Your tracking list is empty




NASA's NSSDC Master Catalog

Two Line Element Set (TLE):
1 29507U 06046C   23035.87625313  .00002514  00000-0  18828-3 0  9999
2 29507  97.7058  69.8386 0045243 165.7299 194.5216 15.02833303889762
Source of the keplerian elements: AFSPC